,,,PA_Meas_PMT16A,,PR_Meas_QMR101_102,,RH_Meas_QMH101,,SR_Meas_QMS101,,TA_Meas_QMH101,,GenWind,,GenWind,
date,time,status,PA,status,PR,status,RH,status,SR,status,TA,status,DirAvg,status,SpdAvg,
2009-06-02, 00:00:04,VALID,1009.73,VALID,0,VALID,92.63,VALID,0,VALID,24.7055,VALID,94,VALID,0.258203,
2009-06-02, 00:01:04,VALID,1009.72,VALID,0,VALID,92.6224,VALID,0.105969,VALID,24.7037,VALID,94,VALID,0.31875,
2009-06-02, 00:02:04,VALID,1009.72,VALID,0,VALID,92.6148,VALID,0,VALID,24.725,VALID,73,VALID,0.244922,
2009-06-02, 00:03:04,VALID,1009.72,VALID,0,VALID,92.5995,VALID,0,VALID,24.725,VALID,60,VALID,0.434375,
2009-06-02, 00:04:04,VALID,1009.69,VALID,0,VALID,92.5919,VALID,0.105969,VALID,24.7464,VALID,64,VALID,0.414844,
2009-06-02, 00:05:04,VALID,1009.67,VALID,0,VALID,92.569,VALID,0.105969,VALID,24.725,VALID,41,VALID,0.657031,
2009-06-02, 00:06:04,VALID,1009.66,VALID,0,VALID,92.569,VALID,0,VALID,24.725,VALID,39,VALID,0.610156,
2009-06-02, 00:07:04,VALID,1009.63,VALID,0,VALID,92.569,VALID,0,VALID,24.7055,VALID,72,VALID,0.279687,
2009-06-02, 00:08:04,VALID,1009.58,VALID,0,VALID,92.5461,VALID,0.105969,VALID,24.6842,VALID,72,VALID,0.0648438,
2009-06-02, 00:09:04,VALID,1009.57,VALID,0,VALID,92.5538,VALID,0.105969,VALID,24.686,VALID,60,VALID,0.490234,
2009-06-02, 00:10:04,VALID,1009.54,VALID,0,VALID,92.5385,VALID,0.105969,VALID,24.7055,VALID,55,VALID,0.386719,
2009-06-02, 00:11:04,VALID,1009.49,VALID,0,VALID,92.5385,VALID,0,VALID,24.686,VALID,55,VALID,0.413281,
2009-06-02, 00:12:04,VALID,1009.45,VALID,0,VALID,92.5385,VALID,0.105969,VALID,24.686,VALID,55,VALID,0.407813,
2009-06-02, 00:13:04,VALID,1009.46,VALID,0,VALID,92.569,VALID,0.105969,VALID,24.686,VALID,55,VALID,0.175781,
2009-06-02, 00:14:04,VALID,1009.43,VALID,0,VALID,92.5614,VALID,0,VALID,24.686,VALID,55,VALID,0,
2009-06-02, 00:15:04,VALID,1009.42,VALID,0,VALID,92.5538,VALID,0.105969,VALID,24.6666,VALID,55,VALID,0.0625,
2009-06-02, 00:16:04,VALID,1009.41,VALID,0,VALID,92.5614,VALID,0,VALID,24.6684,VALID,55,VALID,0,
2009-06-02, 00:17:04,VALID,1009.38,VALID,0,VALID,92.5538,VALID,0,VALID,24.6684,VALID,55,VALID,0.231641,
2009-06-02, 00:18:04,VALID,1009.38,VALID,0,VALID,92.5538,VALID,0,VALID,24.6879,VALID,69,VALID,0.369141,
2009-06-02, 00:19:04,VALID,1009.35,VALID,0,VALID,92.5385,VALID,0,VALID,24.6879,VALID,69,VALID,0,
2009-06-02, 00:20:04,VALID,1009.35,VALID,0,VALID,92.5004,VALID,0,VALID,24.6879,VALID,91,VALID,0.344922,
2009-06-02, 00:21:04,VALID,1009.36,VALID,0,VALID,92.4699,VALID,0,VALID,24.6684,VALID,91,VALID,0.182812,
2009-06-02, 00:22:04,VALID,1009.32,VALID,0,VALID,92.4394,VALID,0,VALID,24.6489,VALID,91,VALID,0.160938,
2009-06-02, 00:23:04,VALID,1009.33,VALID,0,VALID,92.4165,VALID,0,VALID,24.6294,VALID,91,VALID,0.304297,
2009-06-02, 00:24:04,VALID,1009.32,VALID,0,VALID,92.386,VALID,0,VALID,24.6294,VALID,160,VALID,0.517187,
2009-06-02, 00:25:04,VALID,1009.32,VALID,0,VALID,92.4318,VALID,0,VALID,24.5886,VALID,160,VALID,0.388672,
2009-06-02, 00:26:04,VALID,1009.33,VALID,0,VALID,92.4699,VALID,0,VALID,24.6294,VALID,157,VALID,0.427344,
2009-06-02, 00:27:04,VALID,1009.31,VALID,0,VALID,92.4851,VALID,0,VALID,24.6294,VALID,145,VALID,0.281641,
2009-06-02, 00:28:04,VALID,1009.3,VALID,0,VALID,92.5156,VALID,0,VALID,24.6099,VALID,145,VALID,0.0578125,
2009-06-02, 00:29:04,VALID,1009.27,VALID,0,VALID,92.508,VALID,0,VALID,24.6099,VALID,144,VALID,0.0769531,
2009-06-02, 00:30:04,VALID,1009.25,VALID,0,VALID,92.5309,VALID,0,VALID,24.6099,VALID,145,VALID,0.166797,
2009-06-02, 00:31:04,VALID,1009.24,VALID,0,VALID,92.569,VALID,0.105969,VALID,24.6081,VALID,144,VALID,0.175391,
2009-06-02, 00:32:04,VALID,1009.23,VALID,0,VALID,92.5843,VALID,0,VALID,24.6276,VALID,145,VALID,0.260156,
2009-06-02, 00:33:04,VALID,1009.19,VALID,0,VALID,92.5995,VALID,0,VALID,24.6081,VALID,144,VALID,0,
2009-06-02, 00:34:04,VALID,1009.21,VALID,0,VALID,92.6148,VALID,0,VALID,24.6276,VALID,145,VALID,0,
2009-06-02, 00:35:04,VALID,1009.2,VALID,0,VALID,92.6071,VALID,0,VALID,24.6081,VALID,145,VALID,0,
2009-06-02, 00:36:04,VALID,1009.15,VALID,0,VALID,92.6148,VALID,0,VALID,24.6081,VALID,144,VALID,0.125781,
2009-06-02, 00:37:04,VALID,1009.18,VALID,0,VALID,92.6148,VALID,0,VALID,24.6081,VALID,144,VALID,0,
2009-06-02, 00:38:04,VALID,1009.16,VALID,0,VALID,92.6224,VALID,0.105969,VALID,24.6081,VALID,144,VALID,0,
2009-06-02, 00:39:04,VALID,1009.17,VALID,0,VALID,92.6682,VALID,0,VALID,24.6081,VALID,144,VALID,0,
2009-06-02, 00:40:04,VALID,1009.17,VALID,0,VALID,92.6987,VALID,0.105969,VALID,24.6276,VALID,144,VALID,0.370703,
2009-06-02, 00:41:04,VALID,1009.13,VALID,0,VALID,92.7215,VALID,0,VALID,24.6294,VALID,3,VALID,0.4625,
2009-06-02, 00:42:04,VALID,1009.14,VALID,0,VALID,92.7444,VALID,0.105969,VALID,24.6081,VALID,3,VALID,0.497656,
2009-06-02, 00:43:04,VALID,1009.13,VALID,0,VALID,92.752,VALID,0,VALID,24.6276,VALID,3,VALID,0.0582031,
2009-06-02, 00:44:04,VALID,1009.12,VALID,0,VALID,92.7368,VALID,0,VALID,24.6294,VALID,3,VALID,0,
2009-06-02, 00:45:04,VALID,1009.11,VALID,0,VALID,92.752,VALID,0,VALID,24.6081,VALID,3,VALID,0,
2009-06-02, 00:46:04,VALID,1009.12,VALID,0,VALID,92.7749,VALID,0,VALID,24.5886,VALID,3,VALID,0,
2009-06-02, 00:47:04,VALID,1009.1,VALID,0,VALID,92.7902,VALID,0,VALID,24.5905,VALID,3,VALID,0,
2009-06-02, 00:48:04,VALID,1009.09,VALID,0,VALID,92.813,VALID,0.105969,VALID,24.5478,VALID,3,VALID,0,
2009-06-02, 00:49:04,VALID,1009.09,VALID,0,VALID,92.8359,VALID,0.105969,VALID,24.5691,VALID,3,VALID,0,
2009-06-02, 00:50:04,VALID,1009.11,VALID,0,VALID,92.8512,VALID,0.105969,VALID,24.5496,VALID,3,VALID,0,
2009-06-02, 00:51:04,VALID,1009.11,VALID,0,VALID,92.8817,VALID,0,VALID,24.5496,VALID,352,VALID,0,
2009-06-02, 00:52:05,VALID,1009.09,VALID,0,VALID,92.9274,VALID,0.105969,VALID,24.5301,VALID,352,VALID,0,
2009-06-02, 00:53:05,VALID,1009.09,VALID,0,VALID,92.9503,VALID,0,VALID,24.5301,VALID,352,VALID,0,
2009-06-02, 00:54:05,VALID,1009.1,VALID,0,VALID,92.9884,VALID,0,VALID,24.532,VALID,352,VALID,0,
2009-06-02, 00:55:05,VALID,1009.13,VALID,0,VALID,92.9808,VALID,0.105969,VALID,24.5301,VALID,352,VALID,0,
2009-06-02, 00:56:05,VALID,1009.09,VALID,0,VALID,93.0037,VALID,0,VALID,24.5106,VALID,352,VALID,0,
2009-06-02, 00:57:05,VALID,1009.12,VALID,0,VALID,93.0266,VALID,0,VALID,24.4911,VALID,352,VALID,0,
2009-06-02, 00:58:05,VALID,1009.11,VALID,0,VALID,93.0723,VALID,0,VALID,24.4911,VALID,352,VALID,0,
2009-06-02, 00:59:05,VALID,1009.15,VALID,0,VALID,93.1181,VALID,0,VALID,24.4911,VALID,352,VALID,0,
2009-06-02, 01:00:05,VALID,1009.14,VALID,0,VALID,93.141,VALID,0,VALID,24.4911,VALID,352,VALID,0,
2009-06-02, 01:01:05,VALID,1009.17,VALID,0,VALID,93.1867,VALID,0,VALID,24.4911,VALID,352,VALID,0,
2009-06-02, 01:02:05,VALID,1009.16,VALID,0,VALID,93.2096,VALID,0,VALID,24.4717,VALID,352,VALID,0,
2009-06-02, 01:03:05,VALID,1009.15,VALID,0,VALID,93.2172,VALID,0,VALID,24.5125,VALID,352,VALID,0,
2009-06-02, 01:04:05,VALID,1009.15,VALID,0,VALID,93.2477,VALID,0,VALID,24.4911,VALID,353,VALID,0.0300781,
2009-06-02, 01:05:05,VALID,1009.17,VALID,0,VALID,93.2477,VALID,0,VALID,24.4911,VALID,343,VALID,0.10625,
2009-06-02, 01:06:05,VALID,1009.13,VALID,0,VALID,93.2706,VALID,0,VALID,24.4911,VALID,343,VALID,0,
2009-06-02, 01:07:05,VALID,1009.15,VALID,0,VALID,93.2858,VALID,0.105969,VALID,24.4717,VALID,39,VALID,0,
2009-06-02, 01:08:05,VALID,1009.16,VALID,0,VALID,93.2935,VALID,0,VALID,24.4717,VALID,39,VALID,0,
2009-06-02, 01:09:05,VALID,1009.15,VALID,0,VALID,93.2858,VALID,0,VALID,24.4717,VALID,39,VALID,0,
2009-06-02, 01:10:05,VALID,1009.13,VALID,0,VALID,93.2782,VALID,0,VALID,24.4717,VALID,39,VALID,0,
2009-06-02, 01:11:05,VALID,1009.13,VALID,0,VALID,93.2706,VALID,0,VALID,24.4717,VALID,33,VALID,0,
2009-06-02, 01:12:05,VALID,1009.09,VALID,0,VALID,93.2782,VALID,0,VALID,24.4522,VALID,33,VALID,0,
2009-06-02, 01:13:05,VALID,1009.1,VALID,0,VALID,93.263,VALID,0,VALID,24.4735,VALID,33,VALID,0,
2009-06-02, 01:14:05,VALID,1009.11,VALID,0,VALID,93.263,VALID,0.105969,VALID,24.4522,VALID,33,VALID,0,
2009-06-02, 01:15:05,VALID,1009.08,VALID,0,VALID,93.2401,VALID,0,VALID,24.4522,VALID,44,VALID,0,
2009-06-02, 01:16:05,VALID,1009.08,VALID,0,VALID,93.2553,VALID,0,VALID,24.454,VALID,66,VALID,0,
2009-06-02, 01:17:05,VALID,1009.09,VALID,0,VALID,93.263,VALID,0,VALID,24.4345,VALID,66,VALID,0,
2009-06-02, 01:18:05,VALID,1009.07,VALID,0,VALID,93.2553,VALID,0,VALID,24.4345,VALID,15,VALID,0.566797,
2009-06-02, 01:19:05,VALID,1009.09,VALID,0,VALID,93.2706,VALID,0,VALID,24.415,VALID,62,VALID,0.290625,
2009-06-02, 01:20:05,VALID,1009.1,VALID,0,VALID,93.2706,VALID,0,VALID,24.4345,VALID,30,VALID,0.459375,
2009-06-02, 01:21:05,VALID,1009.08,VALID,0,VALID,93.263,VALID,0,VALID,24.415,VALID,106,VALID,0.589844,
2009-06-02, 01:22:05,VALID,1009.02,VALID,0,VALID,93.2706,VALID,0,VALID,24.3956,VALID,83,VALID,0.491406,
2009-06-02, 01:23:05,VALID,1009.02,VALID,0,VALID,93.2553,VALID,0,VALID,24.3761,VALID,82,VALID,0.437891,
2009-06-02, 01:24:05,VALID,1009.06,VALID,0,VALID,93.2477,VALID,0,VALID,24.3956,VALID,94,VALID,0.528125,
2009-06-02, 01:25:05,VALID,1009.04,VALID,0,VALID,93.2553,VALID,0,VALID,24.3956,VALID,79,VALID,0.185156,
2009-06-02, 01:26:05,VALID,1009.04,VALID,0,VALID,93.263,VALID,0,VALID,24.3761,VALID,33,VALID,0.222266,
2009-06-02, 01:27:05,VALID,1009.03,VALID,0,VALID,93.263,VALID,0,VALID,24.3974,VALID,27,VALID,0,
2009-06-02, 01:28:05,VALID,1009.02,VALID,0,VALID,93.2706,VALID,0,VALID,24.3974,VALID,27,VALID,0.111719,
2009-06-02, 01:29:05,VALID,1009.05,VALID,0,VALID,93.2858,VALID,0,VALID,24.3761,VALID,41,VALID,0.128516,
2009-06-02, 01:30:05,VALID,1009.08,VALID,0,VALID,93.2706,VALID,0,VALID,24.3956,VALID,127,VALID,0.447266,
2009-06-02, 01:31:05,VALID,1009.12,VALID,0,VALID,93.2935,VALID,0.105969,VALID,24.3724,VALID,114,VALID,0.886719,
2009-06-02, 01:32:05,VALID,1009.13,VALID,0,VALID,93.2858,VALID,0.105969,VALID,24.3937,VALID,107,VALID,1.25547,
2009-06-02, 01:33:05,VALID,1009.15,VALID,0,VALID,93.2782,VALID,0.105969,VALID,24.3937,VALID,96,VALID,0.528125,
2009-06-02, 01:34:05,VALID,1009.12,VALID,0,VALID,93.2858,VALID,0.105969,VALID,24.3919,VALID,108,VALID,0.657031,
2009-06-02, 01:35:05,VALID,1009.11,VALID,0,VALID,93.263,VALID,0,VALID,24.4327,VALID,106,VALID,0.254297,
2009-06-02, 01:36:05,VALID,1009.06,VALID,0,VALID,93.263,VALID,0.105969,VALID,24.4717,VALID,106,VALID,0,
2009-06-02, 01:37:05,VALID,1009.06,VALID,0,VALID,93.2553,VALID,0.105969,VALID,24.4911,VALID,106,VALID,0.0921875,
2009-06-02, 01:38:05,VALID,1009.06,VALID,0,VALID,93.2248,VALID,0,VALID,24.4717,VALID,106,VALID,0.426953,
2009-06-02, 01:39:05,VALID,1009.04,VALID,0,VALID,93.1867,VALID,0.105969,VALID,24.4911,VALID,106,VALID,0,
2009-06-02, 01:40:05,VALID,1009.04,VALID,0,VALID,93.1638,VALID,0.105969,VALID,24.5106,VALID,106,VALID,0.171094,
2009-06-02, 01:41:05,VALID,1009.04,VALID,0,VALID,93.1257,VALID,0.105969,VALID,24.4717,VALID,106,VALID,0.689844,
2009-06-02, 01:42:05,VALID,1009.03,VALID,0,VALID,93.0647,VALID,0.105969,VALID,24.4911,VALID,91,VALID,0.531641,
2009-06-02, 01:43:05,VALID,1009.04,VALID,0,VALID,93.0418,VALID,0,VALID,24.4911,VALID,67,VALID,0.550391,
2009-06-02, 01:44:05,VALID,1009.04,VALID,0,VALID,92.9961,VALID,0.105969,VALID,24.4911,VALID,78,VALID,0.472656,
2009-06-02, 01:45:05,VALID,1009.04,VALID,0,VALID,92.9808,VALID,0,VALID,24.5106,VALID,76,VALID,0.396094,
2009-06-02, 01:46:05,VALID,1009.02,VALID,0,VALID,92.9503,VALID,0,VALID,24.5125,VALID,76,VALID,0.442578,
2009-06-02, 01:47:05,VALID,1009.04,VALID,0,VALID,92.9503,VALID,0,VALID,24.493,VALID,75,VALID,0.212891,
2009-06-02, 01:48:05,VALID,1009.02,VALID,0,VALID,92.9122,VALID,0,VALID,24.493,VALID,75,VALID,0.194141,
2009-06-02, 01:49:05,VALID,1009.03,VALID,0,VALID,92.9046,VALID,0,VALID,24.493,VALID,75,VALID,0,
2009-06-02, 01:50:05,VALID,1009,VALID,0,VALID,92.8969,VALID,0,VALID,24.5125,VALID,75,VALID,0.0703125,
2009-06-02, 01:51:05,VALID,1008.99,VALID,0,VALID,92.8969,VALID,0,VALID,24.493,VALID,81,VALID,0.566016,
2009-06-02, 01:52:05,VALID,1009.02,VALID,0,VALID,92.8664,VALID,0,VALID,24.493,VALID,99,VALID,0.949219,
2009-06-02, 01:53:05,VALID,1008.98,VALID,0,VALID,92.8588,VALID,0,VALID,24.5125,VALID,102,VALID,0.805078,
2009-06-02, 01:54:05,VALID,1008.95,VALID,0,VALID,92.8741,VALID,0,VALID,24.493,VALID,100,VALID,1.11172,
2009-06-02, 01:55:05,VALID,1008.95,VALID,0,VALID,92.8893,VALID,0,VALID,24.5125,VALID,111,VALID,0.606641,
2009-06-02, 01:56:05,VALID,1008.93,VALID,0,VALID,92.8512,VALID,0,VALID,24.5125,VALID,146,VALID,0.407422,
2009-06-02, 01:57:05,VALID,1008.93,VALID,0,VALID,92.8283,VALID,0,VALID,24.493,VALID,146,VALID,0.341016,
2009-06-02, 01:58:05,VALID,1008.94,VALID,0,VALID,92.813,VALID,0,VALID,24.4735,VALID,147,VALID,0.60625,
2009-06-02, 01:59:05,VALID,1008.94,VALID,0,VALID,92.7749,VALID,0,VALID,24.4735,VALID,140,VALID,0.731641,
2009-06-02, 02:00:05,VALID,1008.91,VALID,0,VALID,92.7978,VALID,0,VALID,24.454,VALID,140,VALID,0.419922,
2009-06-02, 02:01:05,VALID,1008.88,VALID,0,VALID,92.7825,VALID,0.105969,VALID,24.4327,VALID,147,VALID,0.161719,
2009-06-02, 02:02:05,VALID,1008.9,VALID,0,VALID,92.813,VALID,0.105969,VALID,24.4132,VALID,114,VALID,0.398047,
2009-06-02, 02:03:05,VALID,1008.88,VALID,0,VALID,92.8512,VALID,0.105969,VALID,24.4327,VALID,114,VALID,0.294141,
2009-06-02, 02:04:05,VALID,1008.86,VALID,0,VALID,92.8817,VALID,0,VALID,24.4132,VALID,94,VALID,0.376172,
2009-06-02, 02:05:05,VALID,1008.88,VALID,0,VALID,92.9274,VALID,0.105969,VALID,24.4327,VALID,90,VALID,0.637891,
2009-06-02, 02:06:05,VALID,1008.83,VALID,0,VALID,92.9351,VALID,0.105969,VALID,24.4327,VALID,85,VALID,0.391016,
2009-06-02, 02:07:05,VALID,1008.81,VALID,0,VALID,92.9579,VALID,0,VALID,24.4327,VALID,85,VALID,0.0257812,
2009-06-02, 02:08:05,VALID,1008.83,VALID,0,VALID,92.9732,VALID,0,VALID,24.4132,VALID,85,VALID,0.372656,
2009-06-02, 02:09:05,VALID,1008.8,VALID,0,VALID,92.9656,VALID,0.105969,VALID,24.4327,VALID,85,VALID,0.645312,
2009-06-02, 02:10:05,VALID,1008.78,VALID,0,VALID,92.9656,VALID,0,VALID,24.4327,VALID,85,VALID,0.797266,
2009-06-02, 02:11:05,VALID,1008.78,VALID,0,VALID,92.9503,VALID,0.105969,VALID,24.4132,VALID,95,VALID,0.530859,
2009-06-02, 02:12:05,VALID,1008.78,VALID,0,VALID,92.9656,VALID,0,VALID,24.3919,VALID,82,VALID,0.459766,
2009-06-02, 02:13:05,VALID,1008.73,VALID,0,VALID,92.9427,VALID,0,VALID,24.4132,VALID,70,VALID,0.476172,
2009-06-02, 02:14:05,VALID,1008.73,VALID,0,VALID,92.9732,VALID,0.105969,VALID,24.4132,VALID,55,VALID,0.398828,
2009-06-02, 02:15:05,VALID,1008.73,VALID,0,VALID,92.9732,VALID,0.105969,VALID,24.3919,VALID,57,VALID,0.185547,
2009-06-02, 02:16:05,VALID,1008.72,VALID,0,VALID,92.9884,VALID,0,VALID,24.4132,VALID,56,VALID,0,
2009-06-02, 02:17:05,VALID,1008.71,VALID,0,VALID,92.9503,VALID,0.105969,VALID,24.3937,VALID,56,VALID,0,
2009-06-02, 02:18:05,VALID,1008.67,VALID,0,VALID,92.9808,VALID,0.105969,VALID,24.3937,VALID,56,VALID,0,
2009-06-02, 02:19:05,VALID,1008.65,VALID,0,VALID,92.9884,VALID,0.105969,VALID,24.3937,VALID,32,VALID,0,
2009-06-02, 02:20:05,VALID,1008.64,VALID,0,VALID,92.9884,VALID,0.105969,VALID,24.3742,VALID,26,VALID,0,
2009-06-02, 02:21:05,VALID,1008.62,VALID,0,VALID,93.0113,VALID,0.105969,VALID,24.3937,VALID,25,VALID,0,
2009-06-02, 02:22:05,VALID,1008.61,VALID,0,VALID,93.0266,VALID,0.105969,VALID,24.3742,VALID,25,VALID,0,
2009-06-02, 02:23:05,VALID,1008.6,VALID,0,VALID,93.0571,VALID,0,VALID,24.3742,VALID,20,VALID,0,
2009-06-02, 02:24:05,VALID,1008.62,VALID,0,VALID,93.0799,VALID,0,VALID,24.3547,VALID,20,VALID,0,
2009-06-02, 02:25:05,VALID,1008.64,VALID,0,VALID,93.0723,VALID,0.105969,VALID,24.3547,VALID,20,VALID,0,
2009-06-02, 02:26:05,VALID,1008.63,VALID,0,VALID,93.1028,VALID,0,VALID,24.3547,VALID,20,VALID,0,
2009-06-02, 02:27:05,VALID,1008.63,VALID,0,VALID,93.0876,VALID,0.105969,VALID,24.3352,VALID,20,VALID,0,
2009-06-02, 02:28:05,VALID,1008.63,VALID,0,VALID,93.1028,VALID,0.105969,VALID,24.3352,VALID,20,VALID,0,
2009-06-02, 02:29:05,VALID,1008.61,VALID,0,VALID,93.1257,VALID,0.105969,VALID,24.3352,VALID,20,VALID,0,
2009-06-02, 02:30:05,VALID,1008.62,VALID,0,VALID,93.141,VALID,0,VALID,24.3158,VALID,20,VALID,0,
2009-06-02, 02:31:05,VALID,1008.61,VALID,0,VALID,93.1562,VALID,0.211938,VALID,24.2944,VALID,20,VALID,0,
2009-06-02, 02:32:05,VALID,1008.58,VALID,0,VALID,93.1715,VALID,0.105969,VALID,24.3158,VALID,20,VALID,0,
2009-06-02, 02:33:05,VALID,1008.58,VALID,0,VALID,93.202,VALID,0.105969,VALID,24.2963,VALID,20,VALID,0,
2009-06-02, 02:34:05,VALID,1008.6,VALID,0,VALID,93.1867,VALID,0.105969,VALID,24.2768,VALID,20,VALID,0,
2009-06-02, 02:35:05,VALID,1008.59,VALID,0,VALID,93.2248,VALID,0.105969,VALID,24.236,VALID,20,VALID,0,
2009-06-02, 02:36:05,VALID,1008.64,VALID,0,VALID,93.2553,VALID,0.105969,VALID,24.2573,VALID,13,VALID,0,
2009-06-02, 02:37:05,VALID,1008.58,VALID,0,VALID,93.2935,VALID,0.105969,VALID,24.2378,VALID,13,VALID,0,
2009-06-02, 02:38:05,VALID,1008.6,VALID,0,VALID,93.3087,VALID,0.105969,VALID,24.2378,VALID,14,VALID,0,
2009-06-02, 02:39:05,VALID,1008.58,VALID,0,VALID,93.324,VALID,0.105969,VALID,24.2183,VALID,14,VALID,0,
2009-06-02, 02:40:05,VALID,1008.58,VALID,0,VALID,93.3697,VALID,0.105969,VALID,24.2183,VALID,14,VALID,0,
2009-06-02, 02:41:05,VALID,1008.56,VALID,0,VALID,93.4002,VALID,0.105969,VALID,24.2183,VALID,14,VALID,0,
2009-06-02, 02:42:05,VALID,1008.56,VALID,0,VALID,93.3926,VALID,0.105969,VALID,24.197,VALID,14,VALID,0,
2009-06-02, 02:43:05,VALID,1008.55,VALID,0,VALID,93.385,VALID,0.105969,VALID,24.1775,VALID,14,VALID,0,
2009-06-02, 02:44:05,VALID,1008.56,VALID,0,VALID,93.4079,VALID,0.211938,VALID,24.1793,VALID,14,VALID,0,
2009-06-02, 02:45:05,VALID,1008.55,VALID,0,VALID,93.4307,VALID,0.105969,VALID,24.1793,VALID,14,VALID,0,
2009-06-02, 02:46:05,VALID,1008.54,VALID,0,VALID,93.4536,VALID,0,VALID,24.1812,VALID,14,VALID,0,
2009-06-02, 02:47:05,VALID,1008.56,VALID,0,VALID,93.4765,VALID,0,VALID,24.1599,VALID,14,VALID,0,
2009-06-02, 02:48:05,VALID,1008.54,VALID,0,VALID,93.4765,VALID,0,VALID,24.1404,VALID,14,VALID,0,
2009-06-02, 02:49:05,VALID,1008.54,VALID,0,VALID,93.507,VALID,0,VALID,24.1812,VALID,14,VALID,0,
2009-06-02, 02:50:05,VALID,1008.52,VALID,0,VALID,93.5375,VALID,0,VALID,24.1404,VALID,14,VALID,0,
2009-06-02, 02:51:05,VALID,1008.52,VALID,0,VALID,93.5527,VALID,0,VALID,24.1617,VALID,14,VALID,0,
2009-06-02, 02:52:05,VALID,1008.48,VALID,0,VALID,93.5375,VALID,0,VALID,24.1617,VALID,14,VALID,0,
2009-06-02, 02:53:05,VALID,1008.49,VALID,0,VALID,93.5604,VALID,0,VALID,24.1404,VALID,14,VALID,0,
2009-06-02, 02:54:05,VALID,1008.48,VALID,0,VALID,93.5604,VALID,0,VALID,24.1209,VALID,14,VALID,0,
2009-06-02, 02:55:05,VALID,1008.49,VALID,0,VALID,93.568,VALID,0,VALID,24.1014,VALID,14,VALID,0,
2009-06-02, 02:56:05,VALID,1008.47,VALID,0,VALID,93.5909,VALID,0,VALID,24.1209,VALID,14,VALID,0,
2009-06-02, 02:57:05,VALID,1008.49,VALID,0,VALID,93.5985,VALID,0,VALID,24.1227,VALID,14,VALID,0,
2009-06-02, 02:58:05,VALID,1008.47,VALID,0,VALID,93.6137,VALID,0,VALID,24.1209,VALID,14,VALID,0,
2009-06-02, 02:59:05,VALID,1008.46,VALID,0,VALID,93.6366,VALID,0,VALID,24.1422,VALID,14,VALID,0,
2009-06-02, 03:00:05,VALID,1008.43,VALID,0,VALID,93.629,VALID,0,VALID,24.1227,VALID,14,VALID,0,
2009-06-02, 03:01:05,VALID,1008.43,VALID,0,VALID,93.6595,VALID,0,VALID,24.1014,VALID,14,VALID,0,
2009-06-02, 03:02:05,VALID,1008.4,VALID,0,VALID,93.6519,VALID,0,VALID,24.1227,VALID,14,VALID,0,
2009-06-02, 03:03:05,VALID,1008.36,VALID,0,VALID,93.6519,VALID,0,VALID,24.1227,VALID,14,VALID,0,
2009-06-02, 03:04:05,VALID,1008.36,VALID,0,VALID,93.6671,VALID,0,VALID,24.0819,VALID,14,VALID,0,
2009-06-02, 03:05:05,VALID,1008.32,VALID,0,VALID,93.6595,VALID,0,VALID,24.1032,VALID,14,VALID,0,
2009-06-02, 03:06:05,VALID,1008.33,VALID,0,VALID,93.6595,VALID,0,VALID,24.1032,VALID,14,VALID,0,
2009-06-02, 03:07:05,VALID,1008.3,VALID,0,VALID,93.69,VALID,0,VALID,24.1032,VALID,14,VALID,0,
2009-06-02, 03:08:05,VALID,1008.3,VALID,0,VALID,93.7053,VALID,0,VALID,24.0819,VALID,14,VALID,0,
2009-06-02, 03:09:05,VALID,1008.25,VALID,0,VALID,93.69,VALID,0,VALID,24.1227,VALID,14,VALID,0,
2009-06-02, 03:10:05,VALID,1008.24,VALID,0,VALID,93.7129,VALID,0,VALID,24.0837,VALID,14,VALID,0,
2009-06-02, 03:11:05,VALID,1008.23,VALID,0,VALID,93.7281,VALID,0,VALID,24.1032,VALID,14,VALID,0,
2009-06-02, 03:12:05,VALID,1008.21,VALID,0,VALID,93.7358,VALID,0,VALID,24.0819,VALID,14,VALID,0,
2009-06-02, 03:13:05,VALID,1008.19,VALID,0,VALID,93.7358,VALID,0,VALID,24.1032,VALID,14,VALID,0,
2009-06-02, 03:14:05,VALID,1008.19,VALID,0,VALID,93.751,VALID,0,VALID,24.0819,VALID,14,VALID,0,
2009-06-02, 03:15:05,VALID,1008.19,VALID,0,VALID,93.751,VALID,0,VALID,24.0819,VALID,14,VALID,0,
2009-06-02, 03:16:05,VALID,1008.18,VALID,0,VALID,93.7586,VALID,0,VALID,24.1032,VALID,14,VALID,0,
2009-06-02, 03:17:05,VALID,1008.18,VALID,0,VALID,93.7663,VALID,0,VALID,24.1032,VALID,14,VALID,0,
2009-06-02, 03:18:05,VALID,1008.17,VALID,0,VALID,93.7815,VALID,0,VALID,24.1032,VALID,14,VALID,0,
2009-06-02, 03:19:05,VALID,1008.18,VALID,0,VALID,93.7968,VALID,0.105969,VALID,24.0819,VALID,14,VALID,0,
2009-06-02, 03:20:05,VALID,1008.2,VALID,0,VALID,93.8044,VALID,0,VALID,24.1032,VALID,14,VALID,0,
2009-06-02, 03:21:05,VALID,1008.23,VALID,0,VALID,93.7968,VALID,0,VALID,24.0819,VALID,14,VALID,0,
2009-06-02, 03:22:05,VALID,1008.21,VALID,0,VALID,93.8273,VALID,0,VALID,24.1032,VALID,14,VALID,0,
2009-06-02, 03:23:05,VALID,1008.21,VALID,0,VALID,93.8273,VALID,0,VALID,24.1032,VALID,14,VALID,0,
2009-06-02, 03:24:05,VALID,1008.22,VALID,0,VALID,93.8654,VALID,0,VALID,24.1014,VALID,14,VALID,0,
2009-06-02, 03:25:05,VALID,1008.21,VALID,0,VALID,93.8578,VALID,0,VALID,24.1032,VALID,14,VALID,0,
2009-06-02, 03:26:05,VALID,1008.22,VALID,0,VALID,93.8654,VALID,0,VALID,24.1014,VALID,14,VALID,0,
2009-06-02, 03:27:05,VALID,1008.21,VALID,0,VALID,93.873,VALID,0,VALID,24.1032,VALID,14,VALID,0,
2009-06-02, 03:28:05,VALID,1008.21,VALID,0,VALID,93.8578,VALID,0,VALID,24.1032,VALID,14,VALID,0,
2009-06-02, 03:29:05,VALID,1008.18,VALID,0,VALID,93.8425,VALID,0,VALID,24.1014,VALID,14,VALID,0,
2009-06-02, 03:30:05,VALID,1008.18,VALID,0,VALID,93.873,VALID,0,VALID,24.0819,VALID,14,VALID,0,
2009-06-02, 03:31:05,VALID,1008.2,VALID,0,VALID,93.8578,VALID,0,VALID,24.0819,VALID,14,VALID,0,
2009-06-02, 03:32:05,VALID,1008.18,VALID,0,VALID,93.8502,VALID,0,VALID,24.0837,VALID,14,VALID,0,
2009-06-02, 03:33:05,VALID,1008.17,VALID,0,VALID,93.873,VALID,0,VALID,24.0624,VALID,14,VALID,0,
2009-06-02, 03:34:05,VALID,1008.2,VALID,0,VALID,93.873,VALID,0,VALID,24.0837,VALID,14,VALID,0,
2009-06-02, 03:35:04,VALID,1008.17,VALID,0,VALID,93.8807,VALID,0,VALID,24.0837,VALID,14,VALID,0,
2009-06-02, 03:36:04,VALID,1008.15,VALID,0,VALID,93.873,VALID,0,VALID,24.0429,VALID,14,VALID,0,
2009-06-02, 03:37:04,VALID,1008.17,VALID,0,VALID,93.873,VALID,0,VALID,24.0624,VALID,14,VALID,0,
2009-06-02, 03:38:04,VALID,1008.15,VALID,0,VALID,93.8959,VALID,0,VALID,24.0643,VALID,14,VALID,0,
2009-06-02, 03:39:04,VALID,1008.18,VALID,0,VALID,93.8959,VALID,0,VALID,24.0643,VALID,14,VALID,0,
2009-06-02, 03:40:04,VALID,1008.15,VALID,0,VALID,93.8959,VALID,0.105969,VALID,24.0643,VALID,14,VALID,0,
2009-06-02, 03:41:04,VALID,1008.14,VALID,0,VALID,93.8959,VALID,0,VALID,24.0624,VALID,14,VALID,0,
2009-06-02, 03:42:04,VALID,1008.14,VALID,0,VALID,93.9035,VALID,0,VALID,24.0643,VALID,14,VALID,0,
2009-06-02, 03:43:04,VALID,1008.13,VALID,0,VALID,93.9112,VALID,0,VALID,24.0643,VALID,14,VALID,0,
2009-06-02, 03:44:04,VALID,1008.13,VALID,0,VALID,93.9035,VALID,0,VALID,24.0837,VALID,14,VALID,0,
2009-06-02, 03:45:04,VALID,1008.11,VALID,0,VALID,93.9035,VALID,0,VALID,24.0429,VALID,14,VALID,0,
2009-06-02, 03:46:04,VALID,1008.13,VALID,0,VALID,93.9264,VALID,0,VALID,24.0448,VALID,14,VALID,0,
2009-06-02, 03:47:04,VALID,1008.13,VALID,0,VALID,93.9188,VALID,0,VALID,24.0837,VALID,14,VALID,0,
2009-06-02, 03:48:04,VALID,1008.12,VALID,0,VALID,93.9493,VALID,0.105969,VALID,24.0624,VALID,14,VALID,0,
2009-06-02, 03:49:04,VALID,1008.13,VALID,0,VALID,93.9493,VALID,0,VALID,24.0429,VALID,14,VALID,0,
2009-06-02, 03:50:04,VALID,1008.14,VALID,0,VALID,93.934,VALID,0.105969,VALID,24.0624,VALID,14,VALID,0,